STARLINK-1212, 45223

Orbit data source: Space-Track

STARLINK-1212, 45223 is a payload satellite owned by SpaceX/Seattle (US) in LEO that was launched on Mon, 17 Feb 2020 UTC via an FALCON 9 launch vehicle from the Air Force Eastern Test Range (AFETR). Payload-class satellites include a variety of spacecraft equipped with specific instruments for various scientific and technological missions. These include communications satellites like Starlink; space stations such as the ISS; scientific satellites like the Hubble; Earth observation satellites from companies like Planet Labs, Umbra, and HawkEye 360; GPS; miniature CubeSats for education and research; and military/defense satellites.

Loading next visibility...
Identifier
45223, 2020-012AX
Orbit
LEO
Country
Flag of USUS
Related business
Manufacturer
SpaceX/Seattle
Mission
Partially operational Commercial Communications
Bus & Motor
STARLINK, Unknown motor
Mass
260 kg wet, ~248 kg dry
Launch date (UTC)
2020-02-17 (6 years ago)
Launch vehicle
FALCON 9
Launch site
Air Force Eastern Test Range (AFETR)
Object type
Payload
Rocket body
Debris
Shape & HBR
Box + 1 Pan, 10.1 m
Radar Cross Section
13.562 m², Large (>1 m²)

Expand to show TLE details & history
Last TLE update: 11 hours ago

TLE from 11 hours ago
0 STARLINK-1212
1 45223U 20012AX  26073.93610377  .00065447  00000-0  10226-2 0  9994
2 45223  53.0495 324.8135 0005846 135.7012 224.4466 15.53191475336452
Epoch: 2026-03-14T22:27Z
TLE epoch observation values (Epoch: 2026-03-14T22:27:59.365Z)
Latitude
-0.00004°
Longitude
175.26598°
Altitude
411.145 km
Speed
7.664 km/s
True Right ascension
21h 39m 15s
True Declination
0° 00' 00"
Sunlit
Object was in daylight at epoch
Visualization orbit readout
Latitude
Unknown
Longitude
Unknown
Altitude
Unknown
Speed
Unknown
Apparent Right ascension
Unknown
Apparent Declination
Unknown
Sunlit
N/A
Visualization observer readout
Local Sidereal Time
13:44:32
Azimuth
Unknown
Elevation
Unknown
Doppler factor
Unknown
Orbital elements
Apogee altitude
411.659 km
Perigee altitude
403.725 km
Semi-major axis
6,785.829 km
Eccentricity
0.00058
Inclination
53.0495°
RAAN
324.8135°
Arg. of periapsis
135.7012°
True anomaly
224.39971°
Mean anomaly
224.4466°
Eccentric anomaly
224.42316°
Mean motion
3.88274 °/min
Orbital period
92.72 mins
BSTAR
0.0010226
Loading maneuver chart data...
Computing Atmospheric mass density...

Documentation

Showing up to 5 results
|